Regional Weather Roundup
Issued by NWS

Home | Current Version | Previous Version | Text Only | Print | Product List | Glossary Off
Versions: 1 2 3 4 5 6 7 8 9 10 11 12 13 14 15 16 17 18 19 20 21 22 23 24 25 26 27 28 29 30 31 32 33 34 35 36 37 38 39 40 41 42 43 44 45 46 47 48 49 50

000
ASUS43 KLMK 051002
RWRKY
KENTUCKY REGIONAL WEATHER ROUNDUP
NATIONAL WEATHER SERVICE LOUISVILLE KY
600 AM EDT SUN JUL 05 2015

NOTE "FAIR" INDICATES FEW OR NO CLOUDS BELOW 12,000 FEET
WITH NO SIGNIFICANT WEATHER AND/OR OBSTRUCTIONS TO VISIBILITY.

KYZ001>023-026-027-061>063-070>075-051100-
WESTERN AND SOUTH CENTRAL KENTUCKY

CITY           SKY/WX    TMP DP  RH WIND       PRES   REMARKS
PADUCAH        CLOUDY    67  65  93 CALM      30.04R FOG
HENDERSON      CLOUDY    68  64  88 CALM      30.03R
OWENSBORO      MOCLDY    71  70  97 CALM      30.04R FOG
HOPKINSVILLE   CLOUDY    70  69  96 SW6       30.04R
BOWLING GREEN  LGT RAIN  71  68  90 SW5       30.02S FOG
GLASGOW        NOT AVBL
$$

KYZ024-025-028>034-038-045-046-053-051100-
NORTH CENTRAL KENTUCKY

CITY           SKY/WX    TMP DP  RH WIND       PRES   REMARKS
LOUISVILLE/SDF CLOUDY    71  67  87 N7        30.03R FOG
LOUISVILLE/LOU MOCLDY    71  67  87 N3        30.05R FOG
FORT KNOX      CLOUDY    69  67  94 N5        30.03R FOG
$$

KYZ035>037-039>044-047>052-055>060-089>105-051100-
NORTHEAST KENTUCKY

CITY           SKY/WX    TMP DP  RH WIND       PRES   REMARKS
LEXINGTON      CLOUDY    69  66  90 NE7       30.06R
COVINGTON      CLOUDY    67  59  75 E3        30.08R
FRANKFORT      MOCLDY    69  65  86 CALM      30.05R FOG
$$

KYZ054-064>069-076>088-106>120-051100-
SOUTHEAST KENTUCKY

CITY           SKY/WX    TMP DP  RH WIND       PRES   REMARKS
JACKSON        LGT RAIN  68  67  96 CALM      30.07R FOG
LONDON         LGT RAIN  67  63  87 CALM      30.07R
SOMERSET       NOT AVBL
MIDDLESBORO    NOT AVBL
MONTICELLO     CLOUDY    68  68 100 CALM      30.07S FOG
$$




USA.gov is the U.S. government's official web portal to all federal, state and local government web resources and services.